This demonstration page uses our WeatherBlox Daily Observations layout. Learn more.

Left ArrowRight Arrow

Hourly Observations for December 28, 2021

Temp ( °F °C ) Dew Point ( °F °C ) Humidity (%) Winds ( mph kmh ) Pressure ( in mb ) Visibility ( mi km ) Precip ( " mm )
12:59 am 00:59 Cloudy 53 11.7 51 10.6 93 93 Calm 29.80 1009 10 16 0.00 0.00
1:59 am 01:59 Cloudy 57 13.9 52 11.1 83 83 SW 9 15 29.82 1010 10 16 0.00 0.00
2:59 am 02:59 Cloudy 58 14.4 53 11.7 84 84 SW 7 11 29.82 1010 10 16 0.00 0.00
3:59 am 03:59 Cloudy 59 15 55 12.8 87 87 WSW 7 11 29.83 1010 10 16 0.00 0.00
4:59 am 04:59 Mostly Cloudy 59 15 56 13.3 90 90 WSW 6 9 29.83 1010 10 16 0.00 0.00
5:59 am 05:59 Mostly Cloudy 53 11.7 53 11.7 100 100 NNW 6 9 29.87 1011 9 14 0.00 0.00
6:59 am 06:59 Mostly Cloudy 51 10.6 50 10 96 96 Calm 29.89 1012 9 14 0.00 0.00
7:59 am 07:59 Mostly Cloudy 51 10.6 50 10 96 96 NNE 6 9 29.93 1014 8 13 0.00 0.00
8:59 am 08:59 Mostly Cloudy 52 11.1 49 9.4 89 89 NNE 8 13 29.97 1015 9 14 0.00 0.00
9:59 am 09:59 Partly Cloudy 56 13.3 47 8.3 72 72 NNE 6 9 29.99 1016 10 16 0.00 0.00
10:59 am 10:59 Sunny 57 13.9 44 6.7 62 62 NE 6 9 29.98 1015 10 16 0.00 0.00
11:59 am 11:59 Sunny 58 14.4 45 7.2 62 62 VRB 5 7 29.96 1015 10 16 0.00 0.00
12:59 pm 12:59 Partly Cloudy 59 15 43 6.1 56 56 NE 7 11 29.94 1014 10 16 0.00 0.00
1:59 pm 13:59 Partly Cloudy 57 13.9 38 3.3 49 49 NNE 9 15 29.92 1013 10 16 0.00 0.00
2:59 pm 14:59 Sunny 57 13.9 41 5 55 55 NE 5 7 29.90 1012 10 16 0.00 0.00
3:59 pm 15:59 Mostly Sunny 56 13.3 45 7.2 67 67 ENE 5 7 29.89 1012 10 16 0.00 0.00
4:59 pm 16:59 Clear 56 13.3 41 5 57 57 SE 5 7 29.91 1013 10 16 0.00 0.00
5:59 pm 17:59 Cloudy 56 13.3 43 6.1 62 62 Calm 29.91 1013 10 16 0.00 0.00
6:59 pm 18:59 Cloudy 56 13.3 45 7.2 67 67 SSE 5 7 29.91 1013 10 16 0.00 0.00
7:59 pm 19:59 Mostly Cloudy 55 12.8 48 8.9 77 77 SSE 7 11 29.87 1012 10 16 0.00 0.00
8:59 pm 20:59 Mostly Cloudy 54 12.2 50 10 87 87 S 12 19 29.85 1011 10 16 0.00 0.00
9:59 pm 21:59 Mostly Cloudy 55 12.8 52 11.1 90 90 S 8 13 29.85 1011 9 14 0.00 0.00
10:59 pm 22:59 Mostly Cloudy 56 13.3 54 12.2 93 93 S 9 15 29.82 1010 8 13 0.00 0.00
11:59 pm 23:59 Mostly Cloudy 59 15 57 13.9 93 93 S 10 17 29.80 1009 8 13 0.00 0.00

Powered by AerisWeather